Bedford, MA

3:04 PM EDT on September 29, 2016 (GMT -0400)
Hanscom

Weather History for KBED - December, 2013

Change the Weather History Date:

Tuesday, December 3, 2013

  Actual Average Record
Temperature  
Mean Temperature 37 °F -  
Max Temperature 48 °F 43 °F 64 °F (1986)
Min Temperature 26 °F 25 °F 5 °F (1976)
Degree Days  
Heating Degree Days 28    
Moisture  
Dew Point 32 °F    
Average Humidity 90    
Maximum Humidity 100    
Minimum Humidity 54    
Precipitation  
Precipitation 0.00 in - - ()
Sea Level Pressure  
Sea Level Pressure 29.93 in    
Wind  
Wind Speed 4 mph (NW)    
Max Wind Speed 8 mph    
Max Gust Speed -    
Visibility 4 miles    
Events Fog    
Averages and records for this station are not official NWS values.
T = Trace of Precipitation, MM = Missing Value Source: NWS Daily Summary

Daily Weather History Graph

Daily Weather History Graph

Search for Another Location

Airport or City:

Trip Planner

Search our weather history database for the weather conditions in past years. The results will help you decide how hot, cold, wet, or windy it might be!

Date:

Astronomy

Dec. 03, 2013 Rise Set
Actual Time 6:57 AM EST 4:12 PM EST
Civil Twilight 6:25 AM EST 4:44 PM EST
Nautical Twilight 5:50 AM EST 5:19 PM EST
Astronomical Twilight 5:16 AM EST 5:53 PM EST
Moon 7:22 AM EST (12/3) 5:13 PM EST (12/3)
Length of Visible Light 10h 18m
Length of Day
9h 15m
New Moon, 1% of the Moon is Illuminated
Dec 3
New Moon
Dec 9
First Quarter
Dec 17
Full
Dec 25
Last Quarter
Jan 1
New

Hourly Weather History & Observations

Time (EST) Temp. Windchill Dew Point Humidity Pressure Visibility Wind Dir Wind Speed Gust Speed Precip Events Conditions
12:09 AM 35.6 °F - 35.6 °F 100% 29.92 in 0.2 mi Calm Calm - N/A Fog Fog
12:33 AM 35.6 °F 32.8 °F 35.6 °F 100% 29.91 in 0.5 mi NW 3.5 mph - N/A Fog Fog
12:56 AM 35.1 °F 31.0 °F 35.1 °F 100% 29.95 in 0.5 mi NW 4.6 mph - N/A Fog Fog
1:15 AM 35.6 °F 29.9 °F 35.6 °F 100% 29.90 in 1.0 mi NW 6.9 mph - N/A   Overcast
1:36 AM 35.6 °F 29.9 °F 35.6 °F 100% 29.91 in 2.5 mi NW 6.9 mph - N/A   Overcast
1:48 AM 35.6 °F 31.7 °F 35.6 °F 100% 29.90 in 3.0 mi NNW 4.6 mph - N/A   Overcast
1:56 AM 35.1 °F 30.1 °F 35.1 °F 100% 29.95 in 3.0 mi NNW 5.8 mph - N/A   Overcast
2:56 AM 35.1 °F 29.3 °F 35.1 °F 100% 29.95 in 3.0 mi NNW 6.9 mph - N/A   Overcast
3:56 AM 35.1 °F 29.3 °F 34.0 °F 96% 29.94 in 6.0 mi NW 6.9 mph - N/A   Overcast
4:56 AM 35.1 °F 31.0 °F 34.0 °F 96% 29.95 in 5.0 mi NW 4.6 mph - N/A   Overcast
5:56 AM 35.1 °F - 34.0 °F 96% 29.95 in 4.0 mi Calm Calm - N/A   Overcast
6:56 AM 34.0 °F 28.8 °F 34.0 °F 100% 29.95 in 1.0 mi NW 5.8 mph - N/A   Overcast
7:03 AM 33.8 °F 29.6 °F 33.8 °F 100% 29.90 in 3.0 mi NW 4.6 mph - N/A   Overcast
7:19 AM 33.8 °F 29.6 °F 33.8 °F 100% 29.90 in 1.5 mi NW 4.6 mph - N/A   Mist
7:56 AM 34.0 °F 28.8 °F 33.1 °F 96% 29.95 in 1.0 mi NW 5.8 mph - N/A   Mist
8:52 AM 33.8 °F 28.6 °F 33.8 °F 100% 29.90 in 0.8 mi North 5.8 mph - N/A   Mist
8:56 AM 34.0 °F 29.8 °F 34.0 °F 100% 29.95 in 0.8 mi North 4.6 mph - N/A   Mist
9:56 AM 36.0 °F 31.1 °F 34.0 °F 93% 29.95 in 2.0 mi North 5.8 mph - N/A   Mist
10:31 AM 37.4 °F 31.4 °F 35.6 °F 93% 29.89 in 3.0 mi WNW 8.1 mph - N/A   Mostly Cloudy
10:56 AM 39.9 °F 35.1 °F 36.0 °F 86% 29.93 in 3.0 mi NW 6.9 mph - N/A   Mostly Cloudy
11:13 AM 41.0 °F 38.0 °F 35.6 °F 81% 29.87 in 7.0 mi NNW 4.6 mph - N/A   Scattered Clouds
11:56 AM 44.1 °F 40.1 °F 35.1 °F 71% 29.90 in 8.0 mi North 6.9 mph - N/A   Scattered Clouds
12:56 PM 46.9 °F - 34.0 °F 61% 29.89 in 9.0 mi North 5.8 mph - N/A   Clear
1:56 PM 48.0 °F - 33.1 °F 56% 29.89 in 10.0 mi NW 8.1 mph - N/A   Scattered Clouds
2:56 PM 48.0 °F - 32.0 °F 54% 29.89 in 10.0 mi North 5.8 mph - N/A   Clear
3:56 PM 44.1 °F - 30.0 °F 58% 29.90 in 9.0 mi Calm Calm - N/A   Clear
4:56 PM 35.1 °F - 30.0 °F 82% 29.91 in 10.0 mi Calm Calm - N/A   Clear
5:56 PM 32.0 °F - 28.9 °F 88% 29.94 in 8.0 mi Calm Calm - N/A   Clear
6:56 PM 32.0 °F - 28.9 °F 88% 29.95 in 8.0 mi Calm Calm - N/A   Clear
7:56 PM 28.9 °F - 27.0 °F 92% 29.96 in 6.0 mi Calm Calm - N/A   Clear
8:56 PM 30.9 °F 26.2 °F 28.0 °F 89% 29.96 in 6.0 mi WSW 4.6 mph - N/A   Clear
9:56 PM 28.0 °F - 25.0 °F 88% 29.97 in 6.0 mi Calm Calm - N/A   Clear
10:56 PM 27.0 °F - 25.0 °F 92% 29.98 in 4.0 mi Calm Calm - N/A   Clear
11:17 PM 28.4 °F 24.6 °F 26.6 °F 93% 29.94 in 2.5 mi WNW 3.5 mph - N/A   Clear
11:25 PM 26.6 °F 22.6 °F 24.8 °F 93% 29.94 in 3.0 mi WNW 3.5 mph - N/A   Clear
11:56 PM 27.0 °F 23.0 °F 26.1 °F 96% 29.99 in 4.0 mi West 3.5 mph - N/A   Clear